Wind_Speed
35 35 36 37 37 38 38 39 40 41 42 43 44 45 45 46 47 48 50 51 52 53 54 56 57 58 58 59 60 61 62 64 64 63 65 66 67 68 69 70 71 72 72
35 36 36 37 38 38 39 40 41 42 43 44 45 46 46 47 49 50 51 52 54 55 56 57 58 58 59 60 61 62 64 66 67 66 66 68 69 71 72 73 73 73 72
35 35 36 37 38 39 40 41 42 43 44 45 46 46 47 49 50 52 53 54 55 56 57 58 58 59 60 62 63 65 66 68 69 70 69 70 71 72 74 74 73 72 71
36 36 37 38 39 40 41 41 42 43 44 45 46 47 49 50 52 53 54 55 55 56 57 58 60 61 62 63 65 66 68 70 71 72 71 71 72 73 74 72 70 70 71
37 37 37 38 39 40 41 42 42 44 45 46 47 49 50 51 53 54 55 55 56 57 59 60 61 62 64 65 67 68 70 71 72 73 72 72 72 72 71 70 69 69 69
37 37 38 39 39 40 41 43 44 45 46 47 48 49 50 52 54 55 55 56 57 59 60 61 62 63 65 66 68 69 71 72 73 73 73 72 71 70 69 69 69 68 66
37 38 39 40 40 41 42 43 45 46 47 48 49 50 52 53 55 55 56 57 59 60 61 62 63 64 66 67 68 69 71 72 73 74 73 71 70 68 68 68 67 66 64
38 39 40 41 42 42 43 44 46 47 49 50 51 52 53 54 55 56 57 58 60 61 62 63 63 65 66 68 69 69 70 71 73 73 73 70 69 68 67 66 64 62 59
40 40 41 42 43 44 45 46 47 48 50 51 53 54 54 55 56 57 58 60 61 62 62 63 64 65 67 68 69 70 70 70 71 71 70 68 67 65 64 61 59 57 52
40 41 42 43 44 45 46 47 49 50 51 52 54 54 55 56 57 58 59 61 61 61 62 63 65 66 67 68 68 69 69 70 69 68 66 64 63 61 58 57 55 51 48
41 42 43 44 45 46 47 48 49 51 52 53 54 55 56 57 58 59 60 62 62 62 63 64 65 66 66 67 68 69 70 69 67 64 61 59 58 57 54 52 50 48 44
42 43 44 45 46 47 48 49 51 52 54 54 55 55 56 57 58 59 61 63 63 63 64 64 64 65 66 67 69 69 68 66 63 60 58 56 55 53 50 48 46 44 40
44 45 45 46 47 48 50 51 52 54 55 55 55 55 56 57 59 61 62 63 63 64 64 64 64 65 66 67 67 66 64 62 60 58 56 54 51 48 46 43 41 39 36
45 46 46 47 49 50 52 53 54 56 56 56 56 56 57 59 61 62 63 63 64 64 64 64 65 65 67 66 65 63 61 59 58 56 53 50 47 44 42 40 38 35 33
47 48 48 49 50 52 53 54 56 57 57 57 57 58 59 61 62 64 64 64 64 64 64 64 65 65 65 63 61 60 58 57 55 53 51 47 44 42 40 38 35 32 31
48 49 50 51 52 53 54 55 57 58 58 59 60 61 62 63 64 64 65 65 65 65 65 65 65 64 63 61 59 58 56 55 53 50 47 44 42 39 37 35 32 30 29
49 50 51 52 54 55 56 58 58 59 59 60 62 63 64 64 64 65 64 64 64 64 65 65 64 62 61 58 57 55 54 51 49 46 43 41 38 36 34 31 30 28 27
50 51 52 54 56 57 58 59 60 60 60 61 63 64 64 65 65 64 64 63 63 64 64 63 61 60 58 56 53 51 48 46 44 41 39 37 35 33 31 29 28 26 25
51 53 54 56 57 58 60 61 61 62 62 63 64 64 65 65 64 64 63 63 63 62 61 60 58 56 53 51 49 46 44 41 40 37 35 34 32 31 29 28 26 25 23
53 54 55 57 58 60 61 62 62 63 64 64 64 64 64 64 63 62 62 62 61 59 58 56 53 51 49 47 44 42 40 38 36 35 33 32 31 29 28 26 25 23 21
54 55 57 59 60 61 62 62 63 64 64 63 63 63 63 62 60 60 60 59 58 56 54 51 49 47 45 43 41 39 38 37 35 34 32 31 29 28 26 25 23 21 20
56 57 59 60 61 62 62 62 62 62 62 61 61 61 60 60 59 59 58 56 54 52 50 47 46 45 43 41 39 38 37 35 33 32 30 29 28 26 24 22 21 19 18
57 58 59 60 60 60 60 60 61 60 60 60 60 59 58 58 57 56 55 53 51 48 46 45 44 43 41 40 38 37 35 34 32 31 29 28 26 24 23 21 19 18 17
57 58 59 59 59 59 59 59 59 59 59 59 58 57 56 55 54 53 52 49 47 46 45 44 43 42 40 39 38 36 35 33 31 29 28 26 24 23 21 19 18 16 16
57 58 58 58 58 58 59 58 58 58 58 58 57 55 54 53 52 50 48 46 44 44 43 43 42 40 39 38 37 35 34 32 29 27 26 24 23 21 19 18 17 16 15
56 57 57 57 58 58 58 57 57 57 57 56 55 53 52 51 50 48 45 43 43 42 41 40 39 37 36 35 34 33 31 29 28 26 25 23 22 20 18 17 17 16 15
Wind_Direction
291 291 291 290 289 289 289 289 290 289 289 290 290 291 291 291 292 293 293 294 295 296 297 298 298 298 297 297 298 298 298 298 299 299 298 297 297 296 295 295 294 293 292
292 292 291 291 290 290 290 290 290 291 291 291 291 292 292 292 293 294 295 295 296 297 298 298 298 297 297 298 298 298 299 299 299 299 298 297 297 296 296 295 294 293 292
293 292 292 291 291 291 291 291 291 292 292 292 292 293 293 294 295 295 296 296 297 297 298 298 298 298 298 299 299 299 299 299 299 299 299 298 298 297 297 296 295 294 293
293 293 292 292 292 292 292 292 292 292 293 293 293 294 294 295 295 296 296 297 297 298 298 298 299 299 299 299 299 300 300 300 300 300 300 299 299 298 297 296 294 294 294
294 294 294 293 293 293 293 293 293 293 294 294 294 295 295 296 296 297 297 297 298 298 299 299 299 299 299 299 300 300 300 301 301 301 301 300 300 299 297 296 295 295 295
294 294 295 295 295 295 295 295 295 295 295 295 296 296 296 297 297 297 297 298 299 299 300 299 299 299 300 300 301 301 302 302 302 302 302 301 301 299 298 297 297 296 296
296 295 296 296 296 296 296 296 296 296 296 297 297 297 297 297 297 297 298 299 300 301 301 300 300 300 301 301 301 302 302 303 304 303 303 303 302 300 299 298 298 297 298
296 296 296 297 297 298 298 297 297 297 297 297 298 298 298 298 298 298 299 300 302 302 301 301 301 302 302 302 302 303 303 304 304 303 303 303 302 301 300 299 299 298 298
297 297 297 298 298 298 298 298 298 298 299 299 299 299 299 299 299 300 300 301 302 302 302 302 303 303 303 302 303 303 304 304 304 303 303 303 302 302 301 300 300 300 299
297 297 298 298 299 299 299 299 299 299 300 300 300 300 300 300 300 301 301 302 303 303 303 303 303 303 303 303 304 305 305 305 305 304 303 303 303 303 302 301 301 300 299
297 297 298 298 299 299 299 300 300 300 301 301 301 300 300 301 301 302 303 304 304 304 304 304 304 304 304 304 305 305 306 306 306 305 304 303 303 303 302 301 300 300 299
298 298 299 299 299 300 300 301 301 302 302 302 302 301 301 302 302 303 304 305 305 305 305 305 305 305 305 305 306 306 306 306 306 306 305 304 303 303 302 300 299 299 299
298 299 299 300 300 301 301 302 303 303 303 303 302 302 302 303 304 304 305 305 305 305 306 306 306 306 306 306 307 307 306 306 306 306 306 304 303 302 302 300 299 298 297
299 299 300 300 301 302 303 303 304 304 304 303 303 303 303 304 304 305 305 305 306 306 306 306 306 307 307 307 307 307 306 306 307 307 306 305 304 302 301 299 298 296 295
299 299 300 300 301 302 303 304 304 304 304 304 304 304 304 305 305 305 306 306 306 306 306 306 307 307 307 307 306 306 306 306 306 306 306 305 303 301 300 299 296 294 294
299 299 300 301 302 303 303 304 305 305 304 304 304 305 305 306 306 306 307 307 307 307 307 307 307 308 307 306 306 305 305 305 305 305 305 304 303 301 299 298 296 294 293
300 300 300 301 302 303 304 305 305 305 305 304 305 305 306 307 307 307 307 307 307 307 308 308 308 308 307 306 306 305 305 305 305 304 304 303 302 300 298 296 295 293 291
299 300 301 301 302 303 304 305 306 305 305 305 305 306 306 307 307 307 307 307 308 308 308 308 308 307 307 306 306 306 306 305 304 304 303 302 301 300 297 295 293 291 288
300 300 301 302 303 304 305 306 306 306 306 306 306 306 307 307 307 307 307 308 308 308 308 308 308 308 307 307 307 307 306 305 304 303 302 301 300 299 296 294 292 288 285
300 301 302 303 304 305 305 306 306 306 307 308 307 307 307 307 307 307 307 308 309 309 309 309 309 309 308 308 308 307 307 306 305 303 302 300 299 297 295 293 290 286 281
300 301 302 303 304 305 306 306 307 308 308 308 308 309 309 308 308 308 308 308 309 309 309 310 310 309 309 309 308 307 306 306 304 302 301 300 299 296 293 291 288 282 277
301 302 303 304 305 306 307 307 308 309 309 310 310 310 310 309 309 309 309 309 309 309 309 309 310 310 309 309 308 307 306 305 303 302 300 298 297 295 292 289 283 278 273
301 302 303 305 306 307 307 308 309 310 310 311 311 311 311 311 311 311 310 310 309 309 309 309 309 309 309 309 308 307 306 305 303 301 299 297 294 292 289 285 280 274 268
302 303 304 305 306 307 308 309 309 310 311 311 312 312 312 312 312 312 311 310 309 309 309 309 308 308 307 307 307 307 306 304 302 300 298 295 292 289 286 281 275 269 264
302 304 305 306 306 307 308 309 309 310 311 312 312 313 313 313 314 313 312 311 310 310 310 309 309 308 308 307 307 306 305 303 301 299 297 294 291 287 282 276 270 265 259
303 304 305 305 306 307 308 309 310 310 311 312 313 313 314 314 314 313 312 311 311 311 311 311 310 310 309 308 307 306 305 302 299 296 294 291 287 282 277 272 267 261 255
Height
5731 5728 5725 5722 5719 5716 5713 5710 5706 5703 5699 5695 5691 5687 5683 5679 5674 5670 5665 5660 5655 5650 5644 5638 5632 5625 5619 5613 5607 5601 5594 5588 5584 5582 5573 5564 5556 5548 5541 5534 5527 5521 5515
5722 5719 5716 5713 5709 5706 5703 5700 5696 5692 5688 5684 5680 5676 5672 5668 5663 5658 5653 5647 5642 5636 5630 5624 5617 5611 5605 5598 5592 5585 5579 5571 5565 5562 5556 5547 5538 5529 5522 5514 5506 5499 5492
5712 5709 5706 5703 5700 5696 5693 5689 5685 5682 5678 5673 5669 5665 5660 5655 5650 5645 5640 5634 5628 5622 5616 5610 5603 5597 5590 5583 5576 5569 5562 5554 5547 5540 5536 5528 5519 5509 5501 5493 5485 5478 5471
5703 5700 5696 5693 5690 5686 5682 5679 5675 5670 5666 5662 5657 5653 5648 5643 5638 5632 5627 5621 5615 5608 5602 5595 5588 5582 5575 5568 5560 5553 5545 5537 5529 5520 5514 5507 5498 5489 5479 5471 5465 5459 5451
5693 5690 5686 5683 5679 5675 5672 5668 5663 5659 5655 5650 5645 5641 5635 5630 5625 5619 5613 5607 5601 5595 5588 5581 5573 5566 5559 5551 5543 5536 5527 5519 5510 5501 5494 5486 5478 5468 5459 5451 5445 5439 5433
5683 5680 5676 5672 5669 5665 5661 5657 5652 5648 5643 5638 5633 5628 5623 5617 5611 5605 5599 5593 5587 5580 5573 5566 5558 5551 5543 5535 5526 5517 5508 5499 5491 5482 5474 5466 5458 5448 5439 5431 5424 5419 5414
5673 5669 5666 5662 5658 5654 5650 5645 5641 5636 5631 5626 5620 5615 5609 5603 5597 5591 5585 5578 5572 5565 5558 5550 5543 5535 5526 5518 5510 5501 5491 5480 5470 5461 5453 5445 5437 5429 5420 5413 5405 5398 5392
5662 5659 5655 5651 5647 5642 5638 5633 5629 5624 5619 5613 5607 5602 5596 5589 5583 5576 5570 5564 5557 5550 5542 5534 5526 5518 5509 5500 5493 5484 5475 5464 5453 5442 5433 5426 5417 5409 5400 5393 5386 5380 5375
5652 5648 5644 5639 5635 5631 5626 5621 5616 5611 5606 5600 5594 5588 5582 5575 5568 5562 5555 5549 5542 5534 5526 5518 5509 5501 5493 5483 5474 5467 5458 5448 5436 5425 5416 5407 5398 5390 5381 5374 5368 5362 5359
5641 5637 5632 5628 5624 5619 5614 5609 5604 5598 5593 5587 5581 5574 5567 5561 5554 5547 5540 5534 5527 5519 5511 5502 5493 5484 5475 5465 5456 5447 5439 5430 5420 5410 5400 5390 5382 5374 5365 5358 5352 5347 5343
5629 5625 5621 5616 5612 5607 5602 5597 5591 5585 5580 5573 5567 5560 5553 5547 5539 5532 5524 5517 5510 5503 5495 5486 5477 5467 5458 5448 5438 5429 5420 5411 5402 5393 5384 5376 5368 5359 5352 5345 5339 5334 5330
5618 5614 5609 5604 5599 5594 5589 5584 5578 5572 5566 5559 5553 5546 5539 5532 5524 5517 5509 5501 5493 5486 5478 5469 5460 5451 5441 5432 5422 5412 5402 5393 5384 5376 5369 5361 5354 5346 5339 5333 5327 5322 5319
5606 5602 5597 5592 5587 5582 5576 5571 5565 5558 5552 5545 5538 5532 5525 5518 5510 5502 5494 5485 5477 5468 5461 5452 5443 5434 5424 5415 5405 5395 5385 5377 5369 5361 5354 5347 5340 5333 5327 5322 5317 5313 5309
5595 5590 5585 5580 5574 5569 5563 5557 5551 5544 5537 5530 5524 5517 5511 5503 5495 5486 5478 5469 5461 5452 5444 5435 5426 5417 5407 5398 5388 5379 5370 5362 5354 5347 5339 5333 5327 5321 5316 5311 5307 5304 5301
5582 5577 5572 5567 5561 5556 5550 5543 5536 5530 5522 5515 5509 5502 5495 5488 5479 5470 5461 5453 5444 5436 5427 5419 5410 5401 5391 5382 5372 5363 5355 5347 5339 5332 5326 5320 5314 5309 5305 5301 5297 5294 5292
5570 5565 5559 5554 5548 5542 5536 5530 5522 5515 5507 5499 5492 5485 5477 5470 5461 5453 5444 5435 5427 5418 5409 5401 5393 5383 5374 5365 5356 5348 5340 5333 5326 5319 5313 5308 5303 5298 5294 5290 5287 5285 5283
5556 5551 5546 5540 5534 5528 5522 5515 5509 5501 5492 5484 5476 5468 5460 5452 5444 5435 5427 5418 5410 5401 5392 5384 5374 5366 5357 5348 5340 5332 5325 5318 5312 5306 5301 5296 5292 5288 5284 5281 5279 5277 5275
5543 5538 5532 5527 5520 5514 5507 5500 5493 5486 5478 5470 5461 5451 5442 5434 5426 5418 5409 5401 5393 5384 5375 5366 5357 5349 5340 5332 5324 5317 5311 5305 5299 5294 5289 5285 5281 5278 5275 5272 5270 5268 5267
5529 5524 5518 5512 5506 5499 5492 5484 5477 5469 5461 5453 5445 5436 5426 5418 5409 5401 5392 5384 5376 5368 5359 5350 5341 5333 5325 5317 5310 5304 5298 5293 5288 5283 5279 5275 5272 5269 5266 5264 5262 5260 5259
5516 5510 5504 5498 5491 5484 5476 5468 5461 5452 5444 5436 5427 5418 5409 5400 5392 5384 5376 5367 5359 5351 5343 5335 5327 5319 5311 5304 5298 5292 5287 5282 5278 5274 5270 5266 5263 5260 5258 5256 5254 5253 5252
5501 5495 5489 5482 5475 5468 5460 5452 5444 5436 5427 5418 5409 5400 5391 5383 5375 5368 5360 5352 5344 5336 5329 5321 5314 5306 5299 5293 5287 5282 5277 5272 5268 5264 5261 5258 5255 5252 5250 5248 5246 5245 5245
5487 5481 5474 5467 5460 5452 5444 5436 5428 5420 5411 5402 5393 5384 5375 5367 5359 5352 5344 5336 5329 5322 5314 5308 5302 5295 5288 5282 5277 5272 5267 5263 5259 5255 5252 5249 5246 5244 5242 5240 5239 5238 5238
5472 5465 5458 5451 5444 5436 5429 5420 5412 5404 5396 5387 5378 5370 5361 5352 5345 5337 5329 5322 5315 5308 5302 5296 5290 5284 5278 5272 5267 5262 5258 5253 5249 5246 5243 5240 5238 5236 5235 5233 5232 5232 5232
5456 5450 5443 5436 5428 5421 5413 5405 5397 5389 5381 5373 5364 5355 5347 5339 5331 5324 5316 5309 5302 5296 5290 5284 5278 5273 5267 5262 5257 5252 5248 5244 5240 5237 5234 5232 5230 5228 5227 5226 5226 5226 5226
5441 5435 5428 5421 5413 5406 5399 5391 5383 5375 5367 5359 5350 5342 5334 5326 5319 5311 5303 5297 5290 5284 5278 5272 5267 5262 5256 5251 5247 5242 5238 5234 5231 5228 5225 5223 5222 5221 5220 5220 5220 5220 5221
5426 5419 5413 5406 5399 5391 5384 5376 5368 5361 5353 5345 5337 5329 5321 5314 5306 5299 5292 5285 5279 5273 5267 5261 5256 5251 5246 5241 5236 5232 5228 5225 5222 5219 5217 5216 5215 5214 5214 5213 5214 5214 5215